Date,TemperatureHighF,TemperatureAvgF,TemperatureLowF,DewpointHighF,DewpointAvgF,DewpointLowF,HumidityHigh,HumidityAvg,HumidityLow,PressureMaxIn,PressureMinIn,WindSpeedMaxMPH,WindSpeedAvgMPH,GustSpeedMaxMPH,PrecipitationSumIn
2013-3-1,57,53,49,48,45,43,84,76,69,30.39,30.31,8,1,15,0.14
2013-3-2,57,47,34,45,40,29,87,78,64,30.31,30.09,5,0,10,0.99
2013-3-3,48,37,28,36,31,23,85,79,57,30.33,30.24,4,0,5,0.12
2013-3-4,54,37,26,36,28,21,85,70,42,30.33,29.94,5,1,6,0.00
2013-3-5,51,41,32,37,32,25,79,70,52,29.94,29.74,3,0,4,0.00
2013-3-6,43,40,36,37,34,31,85,80,75,29.93,29.60,5,1,12,0.90
2013-3-7,52,40,33,42,35,28,87,81,64,30.11,29.93,6,0,9,0.47
2013-3-8,52,38,29,39,32,25,86,78,59,30.26,30.10,6,0,8,0.01
2013-3-9,59,38,27,41,30,22,87,75,46,30.51,30.26,4,0,7,0.00
2013-3-10,43,38,31,37,32,25,86,80,76,30.50,30.43,2,0,4,0.08
2013-3-11,52,42,35,42,36,31,87,80,65,30.47,30.18,2,0,3,0.06
2013-3-12,53,51,44,44,43,38,81,74,66,30.19,30.10,8,2,15,0.02
2013-3-13,51,49,47,43,42,41,80,77,75,30.21,30.14,8,2,11,0.06
2013-3-14,46,45,45,39,38,38,77,77,76,29.95,29.92,6,1,8,0.25
2013-3-15,59,52,47,47,43,40,75,72,63,30.25,29.96,5,1,9,0.01
2013-3-16,49,47,44,41,39,34,78,74,67,30.18,29.94,7,1,9,0.15
2013-3-17,48,41,39,33,32,29,76,70,54,30.24,30.02,5,1,10,0.00
2013-3-18,55,42,39,38,32,29,76,68,42,30.24,30.17,6,1,10,0.01
2013-3-19,56,39,29,38,30,23,83,72,41,30.27,29.63,3,0,4,0.24
2013-3-20,48,43,39,40,36,30,84,76,66,30.07,29.43,14,2,24,0.70
2013-3-21,48,38,31,35,29,25,80,72,55,30.26,30.07,5,1,8,0.28
2013-3-22,46,34,27,34,27,20,80,74,53,30.41,30.26,7,0,11,0.04
2013-3-23,51,36,27,32,25,20,80,67,40,30.43,30.33,4,0,5,0.00
2013-3-24,51,42,37,38,33,29,76,71,45,30.18,30.15,1,0,2,0.00
2013-3-25,64,43,27,42,30,20,79,63,29,30.17,29.96,3,0,7,0.00
2013-3-26,63,50,41,42,39,36,83,66,41,30.05,29.98,4,0,5,0.00
2013-3-27,58,48,40,46,40,36,87,76,58,30.03,29.97,3,0,4,0.01
2013-3-28,62,47,38,48,41,36,90,79,58,30.19,30.02,4,0,6,0.01
2013-3-29,65,49,37,48,41,34,90,75,48,30.28,30.18,3,0,4,0.01
2013-3-30,69,50,34,47,39,30,90,71,43,30.29,30.12,5,1,7,0.00
2013-3-31,72,53,38,50,43,35,90,73,41,30.11,29.94,4,1,8,0.00